[[{"header":{"parameterUnit":"m.s-1","parameterCategory":1,"la1":30.2992,"la2":30.254,"lo1":-89.0895,"lo2":-89.0443,"dy":0.0025,"dx":0.0025,"nx":19,"ny":19,"refTime":"2026-04-07T03:00:00:Z","depth":0,"parameterNumber":2,"parameterNumberName":"U-component_of_WINDS"},"data":[0,0,0,-8.7361,-8.7367,-8.7641,-8.7641,-8.8051,-8.8055,0,0,0,0,0,0,0,0,0,0,0,-8.7317,-8.7321,-8.736,-8.7368,-8.7641,-8.7641,-8.805,-8.8055,0,0,0,0,0,0,0,0,0,0,0,-8.7315,-8.732,-8.7325,-8.7369,-8.764,-8.7642,-8.8049,-8.7822,0,0,0,0,0,0,0,0,0,0,-8.7546,-8.7543,-8.7319,-8.7326,-8.7371,-8.764,-8.7642,-8.781,-8.7836,-8.7954,0,-8.8068,0,-8.8069,-8.8087,-8.8088,0,0,0,-8.7341,-8.7522,-8.7561,-8.7326,-8.7374,-8.764,-8.751,-8.7824,-8.7854,-8.7989,-8.8074,-8.8087,-8.8076,-8.809,-8.8092,-8.886,-8.8865,0,0,-8.7325,-8.7387,-8.7541,-8.7582,-8.7544,-8.7501,-8.7519,-8.7841,-8.7938,-8.8075,-8.8096,-8.8082,-8.8093,-8.8096,-8.8856,-8.8861,0,0,0,-8.7301,-8.7378,-8.7408,-8.7567,-8.7612,-8.751,-8.753,-8.7923,-8.7928,-8.81,-8.8087,-8.8095,-8.8101,-8.885,-8.8858,-8.9157,0,0,0,-8.729,-8.7363,-8.7403,-8.7443,-8.7607,-8.7771,-8.7606,-8.7905,-8.794,-8.8085,-8.8096,-8.8106,-8.8845,-8.8854,-8.9137,-8.9289,0,0,0,-8.7287,-8.7362,-8.7414,-8.7446,-8.7565,-8.7764,-8.7786,-8.7911,-8.7934,-8.8089,-8.8107,-8.8841,-8.8852,-8.9119,-8.9259,-8.9507,0,0,0,-8.7301,-8.7679,-8.742,-8.7837,-8.7563,-8.7948,-8.7784,-8.8067,-8.8236,-8.8098,-8.8845,-8.8857,-8.9114,-8.9241,-8.9489,-8.9726,-8.9831,0,0,-8.7812,-8.7743,-8.7982,-8.7759,-8.8205,-8.7901,-8.8391,-8.8488,-8.8447,-8.8725,-8.8742,-8.9144,-8.9257,-8.9503,-9.0399,-9.0483,0,0,0,-8.8165,-8.8338,-8.8443,-8.8606,-8.8688,-8.877,-8.8785,-8.882,-8.9052,-8.8602,-8.9299,-8.9365,-8.9506,-8.9617,-8.9688,-8.9805,-8.8911,-8.891,-8.8909,-8.8977,-8.8902,-8.9293,-8.9252,-8.9412,-8.9422,-8.9544,-8.9593,-8.9474,-8.964,-8.9721,-9.0274,-9.0406,-9.0459,-9.0582,-8.9841,-8.9843,-8.9844,-8.9844,-8.9717,-8.9949,-8.9778,-9.0096,-9.0016,-9.0282,-9.0306,-9.0212,-9.0447,-9.0207,-9.0328,-9.0071,-9.0553,-9.0656,-8.9866,-8.9862,-8.986,-8.9858,-8.9856,-9.0239,-9.0337,-9.0373,-9.0597,-9.0779,-9.0723,-9.0957,-9.0875,-9.08,-9.092,-9.0996,-9.0991,-9.0974,-9.0962,-9.0964,-9.0966,-9.0968,-9.0969,-9.097,-9.0767,-9.0796,-9.1003,-9.112,-9.1211,-9.1322,-9.1335,-9.1423,-9.15,-9.1421,-9.1422,-9.1285,-9.0615,-9.0447,-9.1,-9.0995,-9.0991,-9.0988,-9.0986,-9.1543,-9.1353,-9.1673,-9.1765,-9.1893,-9.2078,-9.197,-9.2156,-9.2217,-9.2335,-9.2171,-9.1689,-9.1613,-9.1556,-9.1416,-9.2187,-9.2187,-9.2187,-9.2187,-9.1982,-9.1935,-9.2241,-9.2393,-9.2532,-9.2466,-9.2828,-9.2841,-9.2824,-9.2857,-9.2734,-9.2542,-9.2488,-9.2443,-9.2367,-9.2236,-9.3197,-9.3198,-9.3199,-9.2454,-9.2416,-9.274,-9.272,-9.2814,-9.2896,-9.3233,-9.3414,-9.3356,-9.3238,-9.288,-9.2838,-9.2528,-9.2431,-9.2305,-9.2188,-9.1946,0,0]},{"header":{"parameterUnit":"m.s-1","parameterCategory":1,"la1":30.2992,"la2":30.254,"lo1":-89.0895,"lo2":-89.0443,"dy":0.0025,"dx":0.0025,"nx":19,"ny":19,"refTime":"2026-04-07T03:00:00:Z","depth":0,"parameterNumber":3,"parameterNumberName":"V-component_of_WINDS"},"data":[0,0,0,-0.8911,-0.8911,-0.8929,-0.8929,-0.8943,-0.8943,0,0,0,0,0,0,0,0,0,0,0,-0.8901,-0.8901,-0.8911,-0.8911,-0.8929,-0.8929,-0.8943,-0.8943,0,0,0,0,0,0,0,0,0,0,0,-0.8901,-0.8901,-0.8901,-0.8911,-0.8929,-0.8929,-0.8943,-0.8932,0,0,0,0,0,0,0,0,0,0,-0.8916,-0.8904,-0.8901,-0.8901,-0.8911,-0.8929,-0.8929,-0.8932,-0.8933,-0.8931,0,-0.8929,0,-0.8936,-0.8943,-0.8943,0,0,0,-0.8914,-0.8903,-0.8911,-0.8901,-0.8911,-0.8929,-0.8922,-0.8933,-0.8934,-0.8932,-0.8929,-0.893,-0.8936,-0.8943,-0.8943,-0.8923,-0.8922,0,0,-0.8913,-0.8902,-0.8911,-0.8912,-0.891,-0.8921,-0.8922,-0.8933,-0.8929,-0.893,-0.8931,-0.8937,-0.8943,-0.8943,-0.8923,-0.8923,0,0,0,-0.8908,-0.8901,-0.891,-0.8911,-0.8915,-0.8922,-0.8923,-0.8929,-0.8933,-0.8931,-0.8937,-0.8943,-0.8943,-0.8923,-0.8923,-0.8899,0,0,0,-0.8908,-0.8898,-0.8909,-0.8902,-0.8915,-0.8923,-0.8918,-0.8932,-0.8933,-0.8937,-0.8943,-0.8944,-0.8924,-0.8923,-0.89,-0.889,0,0,0,-0.8901,-0.8898,-0.8899,-0.8902,-0.8909,-0.8923,-0.8927,-0.8932,-0.8937,-0.8943,-0.8944,-0.8924,-0.8923,-0.8902,-0.8892,-0.888,0,0,0,-0.8891,-0.8878,-0.8898,-0.8886,-0.8909,-0.8908,-0.8927,-0.8927,-0.893,-0.8943,-0.8924,-0.8923,-0.8902,-0.8893,-0.8881,-0.8867,-0.8861,0,0,-0.8868,-0.8875,-0.8869,-0.8887,-0.888,-0.8906,-0.8895,-0.8909,-0.892,-0.8921,-0.892,-0.89,-0.8892,-0.888,-0.883,-0.8824,0,0,0,-0.8857,-0.8852,-0.8853,-0.8855,-0.8865,-0.8871,-0.8888,-0.8892,-0.8894,-0.8918,-0.8893,-0.8889,-0.8882,-0.8876,-0.8872,-0.8866,-0.892,-0.892,-0.892,-0.8809,-0.8823,-0.8812,-0.8828,-0.8829,-0.8845,-0.8847,-0.8856,-0.8871,-0.8864,-0.8865,-0.8832,-0.8825,-0.8822,-0.8816,-0.8859,-0.8859,-0.8859,-0.8859,-0.8775,-0.877,-0.8788,-0.8784,-0.8799,-0.8795,-0.8809,-0.8819,-0.8817,-0.8834,-0.8829,-0.8845,-0.8815,-0.8811,-0.8857,-0.8858,-0.8858,-0.8858,-0.8858,-0.8744,-0.8744,-0.8749,-0.8752,-0.8752,-0.8769,-0.8765,-0.8779,-0.8792,-0.8787,-0.8787,-0.8788,-0.8789,-0.8786,-0.8786,-0.8786,-0.8786,-0.8786,-0.8786,-0.8709,-0.8716,-0.8712,-0.872,-0.8722,-0.8726,-0.874,-0.8742,-0.8747,-0.8758,-0.8758,-0.8771,-0.881,-0.8819,-0.8784,-0.8784,-0.8785,-0.8785,-0.8785,-0.8668,-0.8679,-0.8673,-0.8675,-0.8684,-0.8682,-0.8699,-0.8701,-0.8705,-0.8702,-0.8717,-0.8744,-0.8751,-0.8755,-0.8762,-0.8715,-0.8715,-0.8715,-0.8715,-0.8641,-0.8646,-0.8642,-0.8643,-0.8646,-0.866,-0.865,-0.8661,-0.8673,-0.8675,-0.8684,-0.8695,-0.8699,-0.8704,-0.8709,-0.8716,-0.8658,-0.8658,-0.8658,-0.8616,-0.8622,-0.8612,-0.8624,-0.8631,-0.8637,-0.8627,-0.8627,-0.8643,-0.8656,-0.8677,-0.868,-0.8698,-0.8703,-0.8716,-0.8723,-0.8736,0,0]}]]